This is the latest recevied weather packets stored in our database for station/object IU5JAE-13. If no packets are shown the sender has not sent any weather packets the latest 10 day(s).
| Time | Temp. | Humidity | Pressure | Rain* | Wind** | Luminosity | Snow |
|---|---|---|---|---|---|---|---|
| 1778032526 | 12.22° C | 99% | 1010.3 hPa | 0.76 mm | - | 0 W/m² | - |
| 1778031923 | 12.22° C | 99% | 1010.7 hPa | 2.29 mm | - | 0 W/m² | - |
| 1778031321 | 12.22° C | 99% | 1010.6 hPa | 4.57 mm | - | 0 W/m² | - |
| 1778030719 | 12.22° C | 99% | 1010.4 hPa | 6.1 mm | - | 0 W/m² | - |
| 1778030116 | 12.22° C | 99% | 1010.7 hPa | 6.86 mm | - | 0 W/m² | - |
| 1778029534 | 12.22° C | 99% | 1010.7 hPa | 7.87 mm | - | 0 W/m² | - |
| 1778028932 | 12.22° C | 99% | 1010.9 hPa | 7.62 mm | - | 0 W/m² | - |
| 1778028329 | 12.78° C | 99% | 1011.1 hPa | 6.1 mm | - | 0 W/m² | - |
| 1778027727 | 12.78° C | 99% | 1011.2 hPa | 3.81 mm | - | 0 W/m² | - |
| 1778027124 | 12.78° C | 99% | 1011.4 hPa | 2.54 mm | - | 0 W/m² | - |
| 1778026522 | 12.78° C | 99% | 1011.3 hPa | 4.83 mm | - | 0 W/m² | - |
| 1778025919 | 12.78° C | 99% | 1011.4 hPa | 8.13 mm | - | 0 W/m² | - |
| 1778025317 | 12.78° C | 99% | 1011.6 hPa | 9.4 mm | - | 0 W/m² | - |
| 1778024735 | 12.78° C | 99% | 1011.5 hPa | 13.72 mm | - | 0 W/m² | - |
| 1778024132 | 13.33° C | 99% | 1011.2 hPa | 14.22 mm | - | 0 W/m² | - |
| 1778023530 | 13.33° C | 99% | 1011.4 hPa | 13.72 mm | - | 0 W/m² | - |
| 1778022928 | 13.33° C | 99% | 1011.5 hPa | 10.67 mm | - | 0 W/m² | - |
| 1778022325 | 13.33° C | 99% | 1011.5 hPa | 6.35 mm | - | 0 W/m² | - |
| 1778021723 | 13.33° C | 99% | 1011.5 hPa | 4.83 mm | - | 0 W/m² | - |
| 1778021120 | 13.33° C | 99% | 1011.7 hPa | 0.51 mm | - | 0 W/m² | - |
| 1778020518 | 13.33° C | 99% | 1012 hPa | 0.51 mm | - | 0 W/m² | - |
| 1778019915 | 13.89° C | 99% | 1012.1 hPa | 1.52 mm | - | 0 W/m² | - |
| 1778019333 | 13.89° C | 99% | 1012.2 hPa | 2.79 mm | - | 0 W/m² | - |
| 1778018731 | 13.89° C | 99% | 1012.1 hPa | 4.32 mm | - | 0 W/m² | - |
| 1778018128 | 13.89° C | 99% | 1012 hPa | 4.83 mm | - | 0 W/m² | - |
* Rain latest hour (hover to see other rain measurements)
** Current wind speed in m/s (hover to see current wind gust speed)